#timestamp,LO_Frequency,Hit,StdDev 
1627826415.7,286047002.4,N
1627826435.6,286047002.0,N
1627826455.4,286047001.9,N
1627826475.2,286047004.3,N
1627826495.1,286047002.9,N
1627826496.0,286047002.9,N
1627826515.8,286047003.0,N
1627826535.7,286047006.0,Y
1627826555.5,286047001.7,P
1627826575.3,286047001.5,P
1627826595.2,286047001.6,P
1627826615.0,286047001.6,Y
1627826615.9,286047001.6,P
1627826635.7,286047000.4,P
1627826655.6,286046999.9,N
1627826675.4,286046999.7,N
1627826695.3,286047002.7,Y
1627826715.1,286047000.9,P
1627826735.8,286047000.7,P
1627826755.7,286046998.5,P
1627826775.5,286046998.3,N
1627826795.4,286047000.7,N
1627826815.2,286046998.1,N
1627826835.0,286047000.8,N
1627826835.9,286047000.8,N
1627826855.8,286047000.0,N
1627826875.6,286047001.1,N
1627826895.4,286047000.5,N
1627826915.3,286047000.5,N
1627826935.1,286047000.8,N
1627826955.9,286047001.1,N
1627826975.7,286047001.2,N
1627826995.5,286046998.1,N
1627827015.4,286047001.0,N
1627827035.2,286047000.5,N
1627827055.0,286047001.2,N
1627827055.9,286047001.2,N
1627827075.8,286046999.2,N
1627827095.6,286046999.2,N
1627827115.5,286046998.2,N
1627827135.3,286047000.3,N
1627827155.1,286047002.5,N
1627827175.9,286047002.7,N
1627827195.7,286047002.6,N
1627827215.5,286047002.7,N
1627827235.4,286047002.4,N
1627827255.2,286047002.4,N
1627827275.0,286047000.5,N
1627827276.0,286047000.5,N
1627827295.8,286047000.5,N
1627827315.6,286047000.7,N
1627827335.5,286047001.1,N
1627827355.3,286047000.4,N
1627827375.1,286046999.9,N
1627827395.9,286047001.2,N
1627827415.7,286046997.3,N
1627827435.6,286046997.0,N
1627827455.4,286046996.8,N
1627827475.2,286046996.6,N
1627827495.1,286046999.1,N
1627827496.0,286046999.1,N
1627827515.8,286046996.6,N
1627827535.6,286046997.0,N
1627827555.5,286046996.8,N
1627827575.3,286046999.4,N
1627827595.2,286046999.1,N
1627827615.9,286046998.8,N
1627827635.7,286047000.7,N
1627827655.6,286047002.8,N
1627827675.4,286047000.5,N
1627827695.2,286047000.4,N
1627827715.1,286047000.3,N
1627827716.0,286047000.3,N
1627827735.8,286046998.9,N
1627827755.7,286046998.6,N
1627827775.5,286046998.4,N
1627827795.3,286046998.5,N
1627827815.2,286047001.1,N
1627827835.0,286047001.2,N
1627827835.9,286047001.2,N
1627827855.8,286046998.9,N
1627827875.6,286046999.4,N
1627827895.4,286046996.7,N
1627827915.3,286046999.6,N
1627827935.1,286046999.6,N
1627827955.8,286046999.0,N
1627827975.7,286046997.4,N
1627827995.5,286046997.1,N
1627828015.4,286046997.1,N
1627828035.2,286046995.5,N
1627828055.0,286046995.3,N
1627828055.9,286046995.3,N
1627828075.8,286046995.0,N
1627828095.6,286046995.5,N
1627828115.5,286046997.6,N
1627828135.3,286046997.5,N
1627828155.1,286046998.0,N
1627828175.9,286046997.1,N
1627828195.7,286046996.5,N
1627828215.5,286046999.3,N
1627828235.4,286046999.5,N
1627828255.2,286046996.7,N
1627828275.1,286046999.0,N
1627828276.0,286046999.0,N
1627828295.8,286046999.3,N
1627828315.6,286046996.5,N
1627828335.5,286046999.2,N
1627828355.3,286046999.4,N
1627828375.1,286046996.9,N
1627828395.9,286046999.3,N
1627828415.7,286046998.4,N
1627828435.6,286047001.1,N
1627828455.4,286047002.3,N
1627828475.2,286046999.9,N
1627828495.1,286047000.2,N
1627828496.0,286047000.2,N
1627828515.8,286047002.8,N
1627828535.6,286046999.7,N
1627828555.5,286047002.7,N
1627828575.3,286046999.8,N
1627828595.2,286047000.0,N
1627828615.9,286047000.4,N
1627828635.7,286046999.9,N
1627828655.6,286047001.1,N
1627828675.4,286046999.3,N
1627828695.2,286046999.4,N
1627828715.1,286046999.2,N
1627828716.0,286046999.2,N
1627828735.8,286046996.5,N
1627828755.7,286046997.8,N
1627828775.5,286046995.1,Y
1627828795.3,286046994.9,P
1627828815.2,286046997.9,N
1627828835.0,286046997.9,N
1627828835.9,286046997.9,N
1627828855.8,286046996.0,N
1627828875.6,286046996.1,N
1627828895.4,286046995.3,Y
1627828915.3,286046998.7,P
1627828935.1,286046996.6,P
1627828955.9,286046998.9,N
1627828975.7,286046998.3,N
1627828995.5,286046998.9,N
1627829015.4,286046999.1,N
1627829035.2,286046999.5,N
1627829055.0,286046998.9,N
1627829055.9,286046998.9,N
1627829075.8,286047001.2,N
1627829095.6,286046998.3,N
1627829115.5,286046998.2,N
1627829135.3,286046996.6,Y
1627829155.1,286046999.6,P
1627829175.9,286046999.2,N
1627829195.7,286047001.1,N
1627829215.5,286047000.2,N
1627829235.4,286047002.8,Y
1627829255.2,286047000.2,P
1627829275.1,286046999.8,N
1627829276.0,286046999.8,N
1627829295.8,286046999.7,N
1627829315.6,286047000.5,N
1627829335.5,286047000.0,N
1627829355.3,286047000.1,N
1627829375.2,286047001.1,Y
1627829395.9,286046996.8,P
1627829415.7,286046999.5,N
1627829435.6,286046999.3,N
1627829455.4,286047000.6,N
1627829475.2,286046999.8,N
1627829495.1,286047002.3,N
1627829496.0,286047002.3,N
1627829515.8,286047002.3,N
1627829535.7,286047000.4,N
1627829555.5,286047000.6,N
1627829575.3,286047000.6,N
1627829595.2,286047000.7,N
1627829615.0,286046998.3,N
1627829615.9,286046998.3,N
1627829635.8,286046998.3,N
1627829655.6,286046998.1,N
1627829675.4,286047000.5,N
1627829695.3,286046998.4,N
1627829715.1,286046999.0,N
1627829735.8,286046999.3,N
1627829755.7,286046998.9,N
1627829775.5,286046998.7,N
1627829795.4,286046998.3,N
1627829815.2,286046998.2,N
1627829835.0,286046998.7,N
1627829835.9,286046998.7,N
1627829855.8,286046999.8,N
1627829875.6,286047002.4,N
1627829895.4,286047002.8,N
1627829915.3,286047002.1,N
1627829935.1,286047001.7,N
1627829955.9,286047003.9,N
1627829975.7,286047003.9,N
1627829995.5,286047004.2,N
